Location: Bailey Volunteer Fire Department
(33.4359°N, 96.1680°W)
Time: 09:42:17
(UTC+00:00)

Daily predictions for brighter satellites

Satellite Brightness Start Highest point End
(mag) Time Altitude Azimuth Time Altitude Azimuth Time Altitude Azimuth
Cosmos 1602 Rocket 4.2 12:01:02 10° S 12:05:22 58° E 12:09:44 10° NNE
Cosmos 1833 4.3 12:00:11 10° SW 12:05:36 49° WNW 12:11:07 10° N
OAO 3 Copernicus 4.3 12:03:59 25° WNW 12:06:53 77° N 12:11:54 10° E
IRIDIUM 103 4.3 12:01:58 10° S 12:07:11 87° E 12:12:25 10° N
BREEZE-M DEB (TANK) 3.2 12:06:03 21° WNW 12:09:32 61° SW 12:12:35 10° SE
Tiangong 0.4 12:11:40 11° SW 12:12:07 11° SW 12:13:03 10° SSW
USA 59 Rocket 1.9 12:10:59 17° W 12:12:08 18° WSW 12:16:00 10° SSW
Cosmos 2333 Rocket 2.3 12:07:28 12° NNW 12:12:45 60° WSW 12:18:20 10° S
Cosmos 2219 Rocket 3.0 12:08:31 10° N 12:14:00 50° ENE 12:19:25 10° SE
SL-08 ROCKET BODY 4.3 12:12:55 10° SSW 12:18:44 68° W 12:24:32 10° N
SKYMED 2 4.1 12:15:01 10° SSW 12:19:03 38° W 12:23:06 10° NNW
EPKM 3.6 12:17:27 10° WSW 12:19:43 18° SSW 12:21:20 10° SE
Cosmos 2221 3.5 12:15:56 10° N 12:19:55 46° E 12:23:54 10° SSE
Cosmos 2058 Rocket 3.7 12:17:31 10° NNW 12:21:30 34° W 12:25:26 10° SSW
ISS -3.8 12:20:40 10° SW 12:24:01 70° NW 12:27:22 10° NE
Cosmos 2322 Rocket 2.2 12:18:53 10° NNW 12:24:29 63° WSW 12:30:02 10° S
IRIDIUM 106 4.3 12:20:22 10° SSW 12:25:30 61° W 12:30:40 10° N
Thor Agena Rocket 4.2 12:21:27 10° NNE 12:26:25 59° ESE 12:31:20 10° S
Cosmos 405 Rocket 3.5 12:24:22 10° SW 12:26:58 22° WNW 12:29:35 10° NNW
Cosmos 1707 4.3 12:24:46 10° NNE 12:27:32 28° E 12:30:16 10° SE
Cosmos 1553 Rocket 4.0 12:24:02 10° NNW 12:30:23 68° W 12:36:43 10° S
Cosmos 1825 Rocket 4.1 12:33:42 10° S 12:38:04 65° E 12:42:26 10° NNE
Cosmos 2208 Rocket 4.3 12:33:42 10° S 12:38:56 73° ESE 12:44:06 10° NNE
Cosmos 1125 Rocket 4.0 12:34:58 10° N 12:40:09 61° ENE 12:45:17 10° SSE
Helios 1A Rocket 3.3 12:39:17 10° SSW 12:42:12 29° W 12:45:10 10° NW
Cosmos 1758 Rocket 4.4 12:38:33 10° SW 12:42:20 28° WNW 12:46:08 10° NNW
Cosmos 1484 Rocket 3.3 12:40:16 10° NNW 12:43:10 27° WNW 12:46:04 10° SW
COSMO-SKYMED 1 3.3 12:39:40 10° SSW 12:43:15 29° W 12:46:51 10° NW
Centaur AC-119 4.0 12:40:22 10° WSW 12:44:21 29° S 12:48:10 10° SE
IGS 5A 3.8 12:41:36 10° N 12:45:20 39° WNW 12:49:03 10° SW
Cosmos-2242 4.4 12:43:59 10° NW 12:46:47 18° W 12:49:35 10° SW
BREEZE-M DEB (TANK) 3.4 12:42:32 10° WSW 12:47:23 44° NW 12:49:51 10° NNE
Cosmos 2333 4.4 12:42:30 10° NNW 12:48:05 57° WSW 12:53:34 10° S
SMAP 3.0 12:45:47 10° N 12:50:27 79° WNW 12:55:05 10° SSW
ATLAS 3B R/B 4.3 12:44:16 10° NNW 12:51:09 33° NE 12:57:39 10° ESE
Cosmos 2266 Rocket 4.1 12:45:47 10° SSW 12:52:05 62° W 12:58:21 10° N
SL-16 R/B 3.7 12:50:43 10° WNW 12:54:12 17° W 12:57:42 10° SW
Cosmos 44 3.5 12:50:17 10° SW 12:54:32 42° WNW 12:59:04 10° NNE
Landsat 7 3.8 12:49:58 10° NNE 12:54:39 90° WSW 12:59:17 10° SSW
Cosmos 2084 Rocket 3.3 23:42:40 10° NNW 23:46:53 74° ENE 23:51:03 10° SE
ATLAS CENTAUR R/B 4.0 23:46:27 10° WNW 23:48:44 19° WSW 23:50:59 10° SSW
SMAP 3.1 23:44:35 10° SSE 23:49:10 64° ENE 23:53:47 10° N
YAOGAN 1 4.3 23:48:47 10° E 23:50:11 11° ENE 23:51:35 10° NE
Cosmos 1898 Rocket 3.7 23:45:16 10° S 23:50:12 49° ESE 23:55:09 10° NNE
USA 308 3.8 23:48:50 10° SSE 23:50:35 16° ESE 23:52:48 10° ENE
Okean 1 4.3 23:48:38 10° SE 23:51:26 22° E 23:54:15 10° NE
Cosmos 372 Rocket 4.0 23:46:20 10° S 23:51:27 65° ESE 23:56:32 10° NNE
Cosmos 2266 Rocket 4.0 23:45:46 10° N 23:51:53 90° S 23:57:53 10° S
Cosmos 1900 4.3 23:47:42 10° NNW 23:52:41 75° ENE 23:57:34 10° SSE
Landsat 7 3.9 23:48:43 10° SSE 23:53:13 53° ENE 23:57:45 10° N
Cosmos 1602 Rocket 4.4 23:50:33 10° NNW 23:54:47 53° W 23:58:58 10° S
